Beckley, WV

11:35 PM EST on November 17, 2019 (GMT -0500)
Raleigh County Memorial

Weather History for KBKW - October, 2019

Change the Weather History Date:

Monday, October 21, 2019

  Actual Average Record
Temperature  
Mean Temperature 58 °F 52 °F  
Max Temperature 70 °F 62 °F 80 °F (1949)
Min Temperature 46 °F 42 °F 11 °F (1952)
Degree Days  
Heating Degree Days 7 13  
Month to date heating degree days 160 225  
Since 1 July heating degree days 170 359  
Cooling Degree Days 0 0  
Month to date cooling degree days 40 2  
Year to date cooling degree days 948 552  
Growing Degree Days 8 (Base 50)    
Moisture  
Dew Point 51 °F    
Average Humidity 86    
Maximum Humidity 100    
Minimum Humidity 63    
Precipitation  
Precipitation 0.00 in 0.08 in 1.71 in (1944)
Month to date precipitation 4.28 1.69  
Year to date precipitation 36.10 34.36  
Snow  
Snow 0.00 in 0.00 in 8.00 in (1917)
Month to date snowfall 0.0 0.1  
Since 1 September snowfall 0.0 0.1  
Snow Depth 0.00 in    
Sea Level Pressure  
Sea Level Pressure 30.00 in    
Wind  
Wind Speed 5 mph ()    
Max Wind Speed 21 mph    
Max Gust Speed 30 mph    
Visibility 6.9 miles    
Events Fog    
T = Trace of Precipitation, MM = Missing Value Source: Averaged Metar Reports

Daily Weather History Graph

Daily Weather History Graph

Search for Another Location

Airport or City:

Astronomy

Oct. 21, 2019 Rise Set
Actual Time 7:38 AM EDT 6:39 PM EDT
Civil Twilight 7:11 AM EDT 7:05 PM EDT
Nautical Twilight 6:41 AM EDT 7:36 PM EDT
Astronomical Twilight 6:10 AM EDT 8:06 PM EDT
Moon No Moon Rise 2:51 PM EDT (10/21)
Length of Visible Light 11h 54m
Length of Day
11h 00m
Waning Gibbous, 48% of the Moon is Illuminated
Oct 21
Waning Gibbous
Oct 27
New
Nov 4
First Quarter
Nov 12
Full
Nov 19
Last Quarter

Hourly Weather History & Observations

Time (EDT) Temp. Windchill Dew Point Humidity Pressure Visibility Wind Dir Wind Speed Gust Speed Precip Events Conditions
12:51 AM 51.1 °F - 50.0 °F 96% 30.02 in 0.2 mi Calm Calm - N/A Fog Fog
1:10 AM 51.8 °F - 50.0 °F 94% 30.05 in 0.2 mi SW 3.5 mph - N/A Fog Fog
1:51 AM 51.1 °F - 50.0 °F 96% 30.02 in 0.2 mi SSW 3.5 mph - N/A Fog Fog
2:51 AM 48.9 °F - 48.0 °F 97% 30.03 in 0.2 mi South 3.5 mph - N/A Fog Fog
3:30 AM 48.0 °F - 46.9 °F 96% 30.04 in 0.5 mi Calm Calm - N/A Fog Fog
3:40 AM 48.0 °F - 46.9 °F 96% 30.03 in 0.2 mi Calm Calm - N/A Fog Fog
3:51 AM 48.0 °F - 46.0 °F 93% 30.02 in 0.5 mi Calm Calm - N/A Fog Fog
4:03 AM 46.9 °F - 45.0 °F 93% 30.03 in 0.2 mi Calm Calm - N/A Fog Fog
4:15 AM 46.4 °F 45.2 °F 44.6 °F 93% 30.03 in 1.0 mi SSE 3.5 mph - N/A   Mist
4:20 AM 46.9 °F - 45.0 °F 93% 30.03 in 3.0 mi SE 4.6 mph - N/A   Mostly Cloudy
4:29 AM 48.0 °F - 46.9 °F 96% 30.03 in 4.0 mi SE 4.6 mph - N/A   Mostly Cloudy
4:36 AM 48.9 °F - 48.0 °F 97% 30.03 in 1.8 mi ESE 5.8 mph - N/A   Mostly Cloudy
4:51 AM 50.0 °F - 48.9 °F 96% 30.01 in 2.0 mi SE 4.6 mph - N/A   Overcast
5:00 AM 50.0 °F - 48.9 °F 96% 30.03 in 5.0 mi SE 4.6 mph - N/A   Overcast
5:33 AM 51.1 °F - 48.9 °F 92% 30.03 in 10.0 mi ESE 5.8 mph - N/A   Mostly Cloudy
5:51 AM 50.0 °F - 48.9 °F 96% 30.01 in 10.0 mi SSE 6.9 mph - N/A   Scattered Clouds
6:08 AM 51.1 °F - 48.9 °F 92% 30.03 in 10.0 mi ESE 4.6 mph - N/A   Mostly Cloudy
6:51 AM 52.0 °F - 48.9 °F 89% 30.01 in 10.0 mi SE 4.6 mph - N/A   Mostly Cloudy
7:28 AM 51.1 °F - 48.9 °F 92% 30.03 in 10.0 mi ESE 8.1 mph - N/A   Partly Cloudy
7:51 AM 52.0 °F - 48.9 °F 89% 30.00 in 10.0 mi ESE 6.9 mph - N/A   Clear
8:34 AM 53.1 °F - 50.0 °F 89% 30.03 in 10.0 mi SE 10.4 mph - N/A   Partly Cloudy
8:51 AM 53.1 °F - 50.0 °F 89% 30.01 in 10.0 mi SE 8.1 mph - N/A   Partly Cloudy
9:45 AM 55.4 °F - 51.8 °F 88% 30.04 in 10.0 mi SE 10.4 mph - N/A   Mostly Cloudy
9:51 AM 55.0 °F - 51.1 °F 86% 30.01 in 10.0 mi SE 12.7 mph 23.0 mph N/A   Mostly Cloudy
10:51 AM 55.9 °F - 52.0 °F 87% 30.01 in 10.0 mi SSE 19.6 mph 27.6 mph N/A   Overcast
11:51 AM 57.9 °F - 53.1 °F 84% 30.01 in 10.0 mi SSE 15.0 mph 25.3 mph N/A   Overcast
12:14 PM 60.1 °F - 53.1 °F 78% 30.03 in 10.0 mi SSE 13.8 mph 27.6 mph N/A   Scattered Clouds
12:51 PM 62.1 °F - 54.0 °F 75% 30.00 in 10.0 mi SSE 16.1 mph 23.0 mph N/A   Partly Cloudy
1:51 PM 66.0 °F - 55.0 °F 68% 29.96 in 10.0 mi SSE 13.8 mph 21.9 mph N/A   Clear
2:51 PM 68.0 °F - 55.0 °F 63% 29.93 in 10.0 mi SSE 11.5 mph 21.9 mph N/A   Clear
3:51 PM 68.0 °F - 55.0 °F 63% 29.92 in 10.0 mi SSE 11.5 mph 20.7 mph N/A   Clear
4:51 PM 66.0 °F - 54.0 °F 65% 29.93 in 10.0 mi SE 11.5 mph 25.3 mph N/A   Clear
5:51 PM 64.0 °F - 54.0 °F 70% 29.94 in 10.0 mi SE 10.4 mph - N/A   Clear
6:51 PM 63.0 °F - 54.0 °F 72% 29.94 in 10.0 mi SE 11.5 mph 20.7 mph N/A   Overcast
7:51 PM 61.0 °F - 54.0 °F 78% 29.94 in 10.0 mi SSE 11.5 mph - N/A   Clear
8:51 PM 61.0 °F - 54.0 °F 78% 29.95 in 10.0 mi SE 9.2 mph - N/A   Clear
9:51 PM 61.0 °F - 54.0 °F 78% 29.95 in 10.0 mi SE 11.5 mph - N/A   Clear
10:51 PM 61.0 °F - 54.0 °F 78% 29.93 in 10.0 mi SSE 11.5 mph 20.7 mph N/A   Clear
11:51 PM 61.0 °F - 54.0 °F 78% 29.94 in 10.0 mi South 9.2 mph - N/A   Clear